Weather History for Northolt, United Kingdom

Change the Weather History Date:

Friday, January 4, 2013

  Actual Average Record
Temperature  
Mean Temperature 48 °F -  
Max Temperature 50 °F 44 °F 57 °F (1999)
Min Temperature 46 °F 35 °F 19 °F (2009)
Degree Days  
Heating Degree Days 17    
Moisture  
Dew Point 43 °F    
Average Humidity 79    
Maximum Humidity 87    
Minimum Humidity 68    
Precipitation  
Precipitation 0.00 in - - ()
Sea Level Pressure  
Sea Level Pressure 30.62 in    
Wind  
Wind Speed 10 mph ()    
Max Wind Speed 14 mph    
Max Gust Speed -    
Visibility 7.4 miles    
Events      
Averages and records for this station are not official NWS values.
T = Trace of Precipitation, MM = Missing Value Source: Averaged Metar Reports

Daily Weather History Graph

Daily Weather History Graph

Search for Another Location

Airport:

Trip Planner

Search our weather history database for the weather conditions in past years. The results will help you decide how hot, cold, wet, or windy it might be!

Date:

Astronomy

Jan. 04, 2013 Rise Set
Actual Time 8:06 AM GMT 4:06 PM GMT
Civil Twilight 7:27 AM GMT 4:46 PM GMT
Nautical Twilight 6:44 AM GMT 5:29 PM GMT
Astronomical Twilight 6:03 AM GMT 6:09 PM GMT
Moon No Moon Rise 10:48 AM GMT (1/4)
Length of Visible Light 9h 19m
Length of Day
7h 59m
Waning Gibbous, 57% of the Moon is Illuminated
Jan 4
Waning Gibbous
Jan 5
Last Quarter
Jan 11
New
Jan 18
First Quarter
Jan 27
Full

Hourly Weather History & Observations

Time (GMT) Temp. Windchill Dew Point Humidity Pressure Visibility Wind Dir Wind Speed Gust Speed Precip Events Conditions
12:50 AM 50.0 °F - 44.6 °F 82% 30.60 in 6.2 mi West 11.5 mph - N/A   Overcast
1:50 AM 50.0 °F - 44.6 °F 82% 30.60 in 6.2 mi West 12.7 mph - N/A   Overcast
2:50 AM 50 °F - 44 °F 71% 30.63 in 31 mi West 10.4 mph - -   Overcast
2:50 AM 50.0 °F - 42.8 °F 76% 30.60 in 6.2 mi West 10.4 mph - N/A   Overcast
3:50 AM 50.0 °F - 42.8 °F 76% 30.63 in 6.2 mi West 10.4 mph - N/A   Overcast
4:50 AM 50.0 °F - 42.8 °F 76% 30.60 in 6.2 mi WSW 8.1 mph - N/A   Overcast
5:50 AM 49 °F - 42 °F 71% 30.63 in 19 mi West 11.5 mph - -   Overcast
5:50 AM 50.0 °F - 42.8 °F 76% 30.63 in 6.2 mi West 11.5 mph - N/A   Overcast
6:50 AM 50.0 °F - 41.0 °F 71% 30.63 in 6.2 mi West 13.8 mph - N/A   Overcast
7:50 AM 50.0 °F - 41.0 °F 71% 30.63 in 6.2 mi West 11.5 mph - N/A   Mostly Cloudy
8:50 AM 48.2 °F - 41.0 °F 76% 30.63 in 6.2 mi West 9.2 mph - N/A   Mostly Cloudy
9:50 AM 50.0 °F - 41.0 °F 71% 30.66 in 6.2 mi West 8.1 mph - N/A   Mostly Cloudy
10:50 AM 50.0 °F - 41.0 °F 71% 30.66 in 6.2 mi West 8.1 mph - N/A   Mostly Cloudy
11:50 AM 49 °F - 42 °F 68% 30.65 in 22 mi West 13.8 mph - -   Mostly Cloudy
11:50 AM 50.0 °F - 41.0 °F 71% 30.63 in 6.2 mi West 13.8 mph - N/A   Mostly Cloudy
12:50 PM 50.0 °F - 42.8 °F 76% 30.63 in 6.2 mi West 10.4 mph - N/A   Mostly Cloudy
1:50 PM 50.0 °F - 44.6 °F 82% 30.63 in 6.2 mi WNW 13.8 mph - N/A   Mostly Cloudy
2:50 PM 50 °F - 45 °F 75% 30.62 in 19 mi WNW 9.2 mph - -   Mostly Cloudy
2:50 PM 50.0 °F - 44.6 °F 82% 30.60 in 6.2 mi WNW 9.2 mph - N/A   Mostly Cloudy
3:50 PM 50.0 °F - 44.6 °F 82% 30.63 in 6.2 mi West 8.1 mph - N/A   Mostly Cloudy
4:50 PM 50.0 °F - 44.6 °F 82% 30.63 in 6.2 mi West 9.2 mph - N/A   Mostly Cloudy
5:50 PM 50 °F - 45 °F 76% 30.62 in 14 mi West 9.2 mph - -   Mostly Cloudy
5:50 PM 50.0 °F - 44.6 °F 82% 30.60 in 6.2 mi West 9.2 mph - N/A   Mostly Cloudy
6:50 PM 48.2 °F - 44.6 °F 87% 30.63 in 6.2 mi West 11.5 mph - N/A   Mostly Cloudy
7:50 PM 48.2 °F - 44.6 °F 87% 30.63 in 6.2 mi West 10.4 mph - N/A   Overcast
8:50 PM 48 °F - 45 °F 84% 30.63 in 7 mi West 9.2 mph - -   Overcast
8:50 PM 48.2 °F - 44.6 °F 87% 30.60 in 6.2 mi West 9.2 mph - N/A   Overcast
9:50 PM 48.2 °F - 44.6 °F 87% 30.60 in 6.2 mi West 8.1 mph - N/A   Overcast
10:50 PM 46.4 °F 41.1 °F 42.8 °F 87% 30.60 in 6.2 mi West 11.5 mph - N/A   Overcast
11:50 PM 47 °F - 43 °F 82% 30.62 in 8 mi West 9.2 mph - -   Overcast
11:50 PM 46.4 °F 41.9 °F 42.8 °F 87% 30.60 in 6.2 mi West 9.2 mph - N/A   Overcast